SCP
0 0 0 0 0 0 0 0 0 0 0 0 0 0 0 0 0 0 0 1 2 2 1 1 1 1 1 1 1 1 0 0 0 0 0 0 0 0 0 0 1 1 1 1
0 0 0 0 0 0 0 0 0 0 0 0 0 0 0 0 0 0 0 1 2 1 1 1 1 1 1 1 1 1 0 0 0 0 0 0 0 0 0 0 0 1 1 1
0 0 0 0 0 0 0 0 0 0 0 0 0 0 0 0 1 1 1 1 1 1 1 1 1 1 1 1 1 1 1 1 1 1 0 0 0 0 0 0 0 0 0 1
0 0 0 0 0 0 0 0 0 0 0 0 0 0 0 0 1 1 1 1 1 1 1 1 1 1 1 1 1 1 1 1 1 1 1 0 0 0 0 0 0 0 0 0
0 0 0 0 0 0 0 0 0 0 0 0 0 0 0 0 0 0 0 1 1 1 1 1 2 1 1 1 1 1 1 1 1 1 1 0 0 0 0 0 0 0 0 0
1 1 0 0 0 0 0 0 0 0 0 0 0 0 0 0 0 0 0 1 1 1 1 1 2 2 2 1 1 1 1 1 1 1 1 0 0 0 0 0 0 0 0 0
1 1 0 0 0 0 0 0 0 0 0 0 0 0 0 0 0 0 0 1 1 1 2 2 2 2 2 2 1 1 1 1 1 1 1 1 0 0 0 0 0 0 0 0
0 0 0 0 0 0 0 0 0 0 0 0 0 0 0 0 0 0 0 1 1 1 2 2 3 3 2 2 2 2 1 1 2 2 1 1 1 1 1 1 1 1 0 0
0 0 0 0 0 0 0 0 0 0 0 0 0 0 0 0 0 0 0 1 1 1 2 3 3 3 2 3 3 3 2 1 1 1 1 1 1 1 1 1 1 1 1 0
0 0 0 0 0 0 0 0 0 0 0 0 0 0 0 0 0 0 1 1 1 1 2 3 3 3 3 3 3 3 3 1 1 1 1 1 1 1 1 1 1 1 1 0
0 0 0 0 0 0 0 0 0 0 0 0 0 0 0 0 0 0 1 1 1 2 2 3 3 3 3 3 3 3 3 2 1 0 1 1 1 1 1 1 1 1 1 0
0 0 0 0 0 0 0 0 0 0 0 0 0 0 0 0 0 0 1 1 1 2 2 2 3 3 3 3 3 3 2 2 1 1 1 1 1 1 1 1 1 1 1 0
0 0 0 0 0 0 0 0 0 0 0 0 0 0 0 0 0 0 1 1 1 1 2 2 3 3 4 4 4 3 2 2 1 1 1 1 1 1 1 1 1 1 1 1
0 0 0 0 0 0 0 0 0 0 0 0 0 0 0 0 0 0 0 1 1 1 2 3 4 5 5 5 4 3 2 2 1 1 1 1 1 1 1 1 1 0 0 1
0 0 0 0 0 0 0 0 0 0 0 0 0 0 0 0 0 0 1 1 1 1 2 3 4 5 5 5 4 3 2 2 2 1 1 1 1 1 1 1 0 0 0 0
0 0 0 0 0 0 0 0 0 0 0 0 0 0 0 0 0 0 1 1 1 1 1 2 3 3 3 3 3 3 3 2 2 2 2 2 1 1 0 0 0 0 0 0
0 0 0 0 0 0 0 0 0 0 0 0 0 0 0 0 0 0 1 1 1 1 1 1 1 2 2 2 3 3 3 3 2 2 2 1 1 0 0 0 0 0 0 0
0 0 0 0 0 0 0 0 0 0 0 0 0 0 0 0 0 0 0 1 1 1 1 1 1 1 1 1 2 2 3 3 2 1 1 1 0 0 0 0 0 0 0 0
0 0 0 0 0 0 0 0 0 0 0 0 0 0 0 0 0 0 0 0 0 0 0 0 1 0 1 1 1 2 2 2 2 1 1 1 1 1 0 0 0 0 0 0
0 0 0 0 0 0 0 0 0 0 0 0 0 0 0 0 0 0 0 0 0 0 0 1 1 1 0 0 1 1 2 2 2 1 1 1 1 1 1 0 0 0 0 0
0 0 0 0 0 0 0 0 0 0 0 0 0 0 0 0 0 0 0 0 0 1 1 1 1 1 1 0 0 1 2 2 2 1 1 1 1 1 1 1 0 0 0 0
0 0 0 0 0 0 0 0 0 0 0 0 0 0 0 0 0 0 0 0 0 1 1 1 1 1 1 0 0 1 1 2 2 2 1 1 1 1 1 1 0 0 0 0
0 0 0 0 0 0 0 0 0 0 0 0 0 0 0 0 0 0 0 0 0 0 1 1 1 1 0 0 0 1 1 2 2 2 1 1 1 1 1 1 1 0 0 0
0 0 0 0 0 0 0 0 0 0 0 0 0 0 0 0 0 0 0 0 0 0 1 1 1 1 0 0 0 1 1 2 2 2 1 1 1 1 1 1 1 0 0 0
0 0 0 0 0 0 0 0 0 0 0 0 0 0 0 0 0 0 0 0 0 0 0 1 1 1 0 0 0 1 1 2 2 2 1 1 1 1 1 1 1 0 0 0
0 0 0 0 0 0 0 0 0 0 0 0 0 0 0 0 0 0 0 0 0 0 0 0 1 0 0 0 0 1 1 2 2 2 1 1 1 1 1 1 1 0 0 0
Wind_Speed
6 5 5 6 7 6 6 6 4 2 4 3 6 5 6 7 6 6 6 8 8 8 8 6 6 5 5 5 5 5 5 4 4 2 2 2 2 2 2 2 3 3 3 3
5 5 5 4 5 6 5 4 3 3 5 4 4 5 6 8 8 6 5 5 6 8 8 7 6 5 5 5 5 5 5 5 4 2 2 2 2 2 2 2 2 3 3 3
6 4 5 5 6 6 6 4 5 4 4 5 4 5 6 7 7 6 5 4 5 7 7 7 6 5 4 5 5 4 5 5 5 4 2 2 2 2 2 2 2 2 2 3
6 5 4 5 5 6 5 3 5 5 4 4 5 3 4 7 8 7 5 4 4 6 6 7 6 5 4 4 4 5 5 5 5 4 3 3 2 2 1 1 1 1 2 3
4 4 5 6 5 5 5 4 6 7 6 6 7 6 4 7 7 7 7 5 4 5 6 7 7 6 5 4 4 4 5 5 4 4 3 2 2 1 1 1 2 1 2 3
6 3 4 4 4 4 4 6 8 8 5 7 8 6 3 4 7 7 7 6 5 6 6 6 6 6 5 5 3 3 4 4 4 4 3 3 2 2 2 2 2 1 2 2
7 6 4 2 4 4 4 4 3 4 5 5 4 4 1 4 5 5 6 5 4 5 6 6 6 6 6 5 4 3 4 4 4 3 3 3 2 2 2 1 1 1 1 1
5 5 6 5 5 4 6 6 5 4 4 3 4 3 4 6 7 6 6 6 5 5 5 5 5 6 6 6 5 4 4 4 4 3 2 2 2 1 1 1 1 1 1 0
4 3 3 4 5 5 6 6 7 6 7 5 3 4 5 5 7 6 7 6 5 5 5 4 4 5 6 6 5 4 4 4 3 3 2 2 2 2 2 1 1 1 1 1
5 5 2 2 4 5 6 6 4 3 4 4 4 3 4 5 5 5 6 5 4 4 4 4 4 5 5 5 4 4 4 4 3 3 2 2 2 2 2 1 1 1 1 1
6 5 4 4 5 5 5 6 5 4 5 3 2 1 3 5 5 5 4 5 4 4 4 4 4 4 4 4 4 3 3 3 3 2 3 2 2 1 1 1 1 0 1 1
5 5 5 6 3 3 4 5 5 4 4 4 3 0 3 6 6 5 4 3 4 3 3 4 4 4 4 4 3 3 3 3 3 2 2 2 2 2 1 1 1 1 1 1
4 4 5 3 3 3 4 5 6 6 5 5 4 1 3 5 5 4 3 3 3 3 3 3 4 4 3 4 3 3 3 3 3 3 3 2 2 1 1 1 1 1 1 1
3 6 7 5 4 2 4 5 5 6 5 6 5 3 2 3 3 3 2 3 3 3 3 3 3 3 3 3 3 4 3 3 3 3 2 2 2 1 1 2 1 1 1 1
4 7 8 8 6 4 4 5 5 7 7 7 5 3 2 1 3 3 3 3 3 3 2 3 2 2 2 2 2 3 3 3 4 3 2 2 2 2 2 2 1 1 1 1
5 7 8 10 8 6 6 7 6 6 6 7 6 5 2 1 3 4 4 3 2 2 2 2 2 2 2 2 2 3 3 3 3 3 3 2 2 2 2 2 2 1 1 1
5 8 8 8 7 6 7 6 7 5 4 4 5 3 1 2 2 3 3 2 1 2 2 1 2 2 1 1 2 3 3 3 3 3 2 2 2 2 1 1 2 1 1 1
7 7 5 7 7 8 2 2 1 3 3 1 2 1 2 2 2 3 3 2 2 2 2 1 1 2 2 1 2 2 3 3 3 3 2 2 2 2 1 1 1 1 1 1
6 6 5 5 7 7 3 1 1 2 2 1 0 1 3 3 3 3 4 3 2 2 1 1 1 2 2 2 2 2 2 3 3 3 2 2 2 2 1 1 1 1 1 1
5 5 5 5 6 6 1 2 1 1 1 1 1 1 2 2 1 1 3 3 3 3 2 2 2 2 2 2 1 2 2 2 2 2 2 2 1 1 1 1 0 0 0 0
5 6 7 7 7 4 1 2 1 1 1 3 3 3 2 1 2 2 3 4 3 3 3 2 2 2 2 2 1 2 2 2 2 2 2 2 1 1 1 1 0 0 0 1
5 4 5 4 6 4 2 2 1 2 4 3 3 3 3 3 4 4 4 3 3 3 3 2 2 2 2 1 1 1 1 2 2 2 2 2 1 1 1 1 1 0 0 0
4 3 2 2 2 1 3 3 3 3 3 3 3 3 3 3 3 3 3 2 3 3 2 2 2 2 1 1 1 1 1 2 2 2 1 1 1 1 1 1 1 0 0 0
3 2 3 3 2 2 2 2 2 3 3 3 3 3 2 2 2 2 2 2 2 2 2 2 2 1 1 1 0 1 1 1 2 2 2 1 2 1 1 1 1 1 0 0
3 2 4 5 3 1 1 2 2 3 2 2 3 2 2 2 2 1 1 1 1 1 2 2 1 1 0 0 0 0 0 0 1 2 2 1 1 1 1 1 0 1 1 1
5 5 5 4 2 2 2 2 3 3 2 2 2 2 2 1 1 1 1 1 1 2 1 1 1 2 2 1 1 1 0 0 1 1 2 1 1 1 1 1 0 1 1 2
Wind_Direction
201 214 224 219 218 236 242 242 244 213 160 202 220 205 189 178 187 189 185 181 175 167 159 149 142 134 127 122 122 124 123 113 102 86 80 85 80 73 58 50 42 46 58 60
201 214 225 234 234 238 251 254 245 212 176 206 228 227 197 183 188 194 189 180 173 165 159 149 146 137 136 135 135 132 125 118 108 95 92 99 97 91 86 58 39 42 53 59
223 213 215 220 230 238 242 248 255 239 208 218 234 236 204 181 178 183 181 176 170 162 159 152 149 146 143 143 144 138 130 123 114 106 90 78 68 61 68 60 40 27 42 63
228 221 226 232 241 250 252 238 260 251 237 232 222 244 202 180 174 182 182 179 173 157 153 149 145 146 151 151 144 142 138 128 122 121 111 106 99 88 84 80 61 13 35 44
229 213 231 235 248 256 270 266 261 259 252 254 240 245 219 175 177 184 181 179 170 155 151 149 148 152 150 138 136 143 138 133 134 127 126 128 110 103 88 77 80 48 37 35
241 227 238 254 254 252 268 266 254 247 245 247 235 237 217 186 181 180 173 166 158 155 145 145 146 144 135 127 127 136 132 126 125 128 131 130 111 96 84 68 62 41 42 27
225 206 208 218 240 219 240 253 244 222 215 230 211 223 155 108 130 132 140 147 145 143 149 151 150 143 138 136 138 133 129 131 133 140 136 128 124 121 111 96 86 60 47 16
244 217 191 194 238 239 231 238 251 259 255 253 219 211 119 112 105 104 114 125 126 125 126 134 146 144 143 141 141 144 143 139 141 157 147 131 122 115 105 105 95 80 64 17
280 250 178 189 224 242 243 245 261 280 288 273 211 145 117 113 116 116 113 114 120 118 120 124 125 130 139 143 150 153 146 145 152 164 149 136 126 119 113 100 87 78 62 13
291 281 226 174 222 232 252 274 268 255 270 268 256 200 152 148 136 124 119 119 118 112 119 127 124 122 124 135 145 147 151 151 153 162 153 130 129 118 111 110 102 98 56 38
282 266 229 201 218 236 224 242 258 262 260 277 281 57 70 140 132 131 134 128 121 120 121 123 121 123 122 127 134 138 144 144 149 154 144 133 131 116 107 113 117 126 103 80
280 279 251 236 219 217 243 257 254 253 268 273 281 132 73 104 115 117 114 118 115 109 116 119 123 127 130 130 137 143 138 132 126 128 129 134 137 133 125 126 117 103 88 67
316 280 264 226 184 198 238 250 265 271 274 270 267 178 126 98 94 99 105 108 114 107 102 108 126 129 127 137 142 138 130 127 124 111 101 105 110 124 149 134 88 89 82 61
294 266 269 269 289 256 245 256 265 266 266 268 263 238 175 138 122 114 115 112 106 107 112 108 108 111 116 124 136 131 129 124 119 115 119 114 103 88 80 79 61 62 76 72
255 262 271 280 288 286 279 270 261 252 263 270 280 266 261 210 156 146 129 116 114 113 99 111 110 103 107 111 116 130 132 129 128 128 122 108 100 84 73 74 65 48 46 35
241 261 274 275 269 270 271 271 261 254 256 259 269 281 310 54 107 120 118 123 136 129 117 117 123 115 118 120 125 126 129 129 127 128 119 108 108 96 84 79 73 49 32 22
253 267 279 279 276 266 263 258 246 245 249 256 271 275 25 30 91 120 127 140 148 139 132 132 140 133 118 120 126 122 118 119 120 121 123 119 111 100 89 69 67 44 18 31
258 268 271 276 278 259 250 359 240 231 249 240 255 346 43 37 71 85 88 106 120 109 121 127 118 115 118 106 108 109 118 125 129 128 123 104 103 106 90 70 61 21 19 56
251 258 262 266 269 265 250 242 276 248 265 13 314 7 31 40 68 68 56 68 77 90 98 105 109 113 112 105 111 115 125 134 134 129 127 124 122 119 109 84 73 17 28 28
243 248 250 260 265 266 310 41 351 246 232 90 104 67 64 68 37 355 51 56 59 71 83 76 86 109 110 96 101 142 138 133 136 132 129 127 129 139 147 137 109 14 355 298
227 232 236 254 261 262 51 84 140 209 96 76 77 80 82 42 29 70 67 61 59 65 75 80 88 102 110 111 116 152 144 146 136 121 135 152 158 158 152 147 136 127 326 316
233 242 237 241 251 247 89 131 121 77 83 78 73 80 80 76 70 70 66 63 61 62 62 71 83 89 104 118 113 118 137 127 118 124 139 154 156 168 134 141 153 148 143 3
226 237 244 241 236 81 114 87 68 63 68 70 75 80 96 96 90 78 69 63 62 64 52 41 79 90 89 109 106 118 116 116 129 139 151 163 160 155 159 160 167 153 103 73
252 273 262 258 221 169 144 107 88 73 64 63 79 88 98 103 99 84 81 69 63 67 54 32 72 108 91 74 71 86 89 110 150 161 172 173 171 164 156 156 143 131 123 315
287 284 268 263 261 223 176 148 124 102 92 87 89 90 94 106 102 81 64 65 50 54 61 39 27 33 331 155 95 102 90 142 178 179 171 164 146 155 157 131 120 182 175 210
249 247 250 262 275 250 212 168 154 146 145 128 117 111 105 105 112 87 67 54 42 30 49 36 15 16 360 13 14 17 66 186 199 189 170 160 144 146 154 160 7 356 266 255